Location: Alexandria
(38.8050°N, 77.0470°W)
Time: 13:06:45
(UTC-05:00)

Tiangong 2 - Pass Details

Date: 10 February 2018
Orbit: 384 x 389 km, 42.8° (Epoch: 24 February)

Event Time Altitude Azimuth Distance (km) Brightness Sun altitude
Rises 20:05:59 0° 258° (WSW) 2,256 6.1 -28.9°
Reaches altitude 10° 20:08:04 10° 262° (W) 1,403 4.8 -29.3°
Enters shadow 20:08:29 13° 263° (W) 1,238 4.4 -29.3°
